Scottsboro, AL

5:25 AM CST on January 18, 2017 (GMT -0600)
Scottsboro

Weather History for K4A6 - December, 2012

Change the Weather History Date:

Wednesday, December 5, 2012

  Actual Average (KHSV) Record (KHSV)
Temperature  
Mean Temperature 56 °F -  
Max Temperature 60 °F 55 °F 79 °F (1998)
Min Temperature 51 °F 33 °F 18 °F (1907)
Degree Days  
Heating Degree Days 10    
Growing Degree Days 6 (Base 50)    
Moisture  
Dew Point 53 °F    
Average Humidity 88    
Maximum Humidity 100    
Minimum Humidity 67    
Precipitation  
Precipitation 0.11 in - - ()
Sea Level Pressure  
Sea Level Pressure 30.19 in    
Wind  
Wind Speed - (North)    
Max Wind Speed -    
Max Gust Speed -    
Visibility 3 miles    
Events Fog , Rain    
Averages and records for this station are not official NWS values.
T = Trace of Precipitation, MM = Missing Value Source: NWS Daily Summary

Daily Weather History Graph

Daily Weather History Graph

Search for Another Location

Airport or City:

Trip Planner

Search our weather history database for the weather conditions in past years. The results will help you decide how hot, cold, wet, or windy it might be!

Date:

Astronomy

Dec. 05, 2012 Rise Set
Actual Time 6:36 AM CST 4:32 PM CST
Civil Twilight 6:08 AM CST 5:00 PM CST
Nautical Twilight 5:37 AM CST 5:32 PM CST
Astronomical Twilight 5:07 AM CST 6:02 PM CST
Moon 11:09 PM CST (12/5) 11:11 AM CST (12/5)
Length of Visible Light 10h 51m
Length of Day
9h 56m
Waning Gibbous, 59% of the Moon is Illuminated
Dec 5
Waning Gibbous
Dec 6
Last Quarter
Dec 13
New
Dec 19
First Quarter
Dec 28
Full

Hourly Weather History & Observations

Time (CST) Temp. Dew Point Humidity Pressure Visibility Wind Dir Wind Speed Gust Speed Precip Events Conditions
12:15 AM 57.2 °F 57.2 °F 100% 30.18 in 1.5 mi North - - N/A   Overcast
12:35 AM 59.0 °F 59.0 °F 100% 30.19 in 1.8 mi North - - N/A   Overcast
12:55 AM 57.2 °F 57.2 °F 100% 30.20 in 1.8 mi North - - N/A   Overcast
1:15 AM 59.0 °F 59.0 °F 100% 30.20 in 1.5 mi North - - N/A   Overcast
1:35 AM 59.0 °F 59.0 °F 100% 30.20 in 3.0 mi North - - N/A   Overcast
1:55 AM 59.0 °F 59.0 °F 100% 30.19 in 3.0 mi North - - N/A   Overcast
2:15 AM 59.0 °F 57.2 °F 94% 30.19 in 1.8 mi North - - N/A   Overcast
2:35 AM 59.0 °F 59.0 °F 100% 30.18 in 2.0 mi North - - N/A   Overcast
2:55 AM 59.0 °F 59.0 °F 100% 30.18 in 1.8 mi North - - N/A   Overcast
3:15 AM 59.0 °F 59.0 °F 100% 30.17 in 1.5 mi North - - N/A   Overcast
3:35 AM 57.2 °F 57.2 °F 100% 30.18 in 1.2 mi North - - N/A   Overcast
3:55 AM 57.2 °F 57.2 °F 100% 30.18 in 1.2 mi North - - N/A   Overcast
4:15 AM 57.2 °F 57.2 °F 100% 30.19 in 1.5 mi North - - 0.03 in Rain Light Rain
4:35 AM 59.0 °F 59.0 °F 100% 30.19 in 2.0 mi North - - 0.09 in Rain Light Rain
4:55 AM 57.2 °F 57.2 °F 100% 30.19 in 1.2 mi North - - 0.10 in Rain Light Rain
5:15 AM 57.2 °F 57.2 °F 100% 30.20 in 1.2 mi North - - N/A   Overcast
5:35 AM 57.2 °F 57.2 °F 100% 30.20 in 1.8 mi North - - 0.01 in Rain Light Rain
5:55 AM 57.2 °F 57.2 °F 100% 30.20 in 1.5 mi North - - 0.01 in Rain Light Rain
6:15 AM 57.2 °F 57.2 °F 100% 30.21 in 1.2 mi North - - N/A   Overcast
6:35 AM 57.2 °F 57.2 °F 100% 30.22 in 0.5 mi North - - N/A Fog Fog
6:55 AM 57.2 °F 57.2 °F 100% 30.23 in 0.5 mi North - - N/A Fog Fog
8:35 AM 57.2 °F 57.2 °F 100% 30.24 in 1.5 mi North - - N/A   Overcast
8:55 AM 59.0 °F 59.0 °F 100% 30.25 in 1.5 mi North - - N/A   Overcast
9:15 AM 59.0 °F 59.0 °F 100% 30.25 in 1.2 mi North - - N/A   Overcast
9:35 AM 59.0 °F 59.0 °F 100% 30.26 in 1.5 mi North - - N/A   Overcast
9:55 AM 57.2 °F 57.2 °F 100% 30.26 in 1.5 mi North - - N/A   Overcast
10:35 AM 57.2 °F 55.4 °F 94% 30.25 in 3.0 mi North - - N/A   Overcast
10:55 AM 57.2 °F 55.4 °F 94% 30.24 in 3.0 mi North - - N/A   Overcast
11:15 AM 57.2 °F 53.6 °F 88% 30.24 in 3.0 mi North - - N/A   Overcast
11:35 AM 57.2 °F 53.6 °F 88% 30.22 in 3.0 mi North - - N/A   Haze
11:55 AM 59.0 °F 50.0 °F 72% 30.21 in 4.0 mi North - - N/A   Haze
12:15 PM 59.0 °F 50.0 °F 72% 30.21 in 3.0 mi North - - N/A   Haze
12:55 PM 60.8 °F 51.8 °F 72% 30.19 in 3.0 mi North - - N/A   Haze
1:15 PM 60.8 °F 51.8 °F 72% 30.18 in 4.0 mi North - - N/A   Haze
1:35 PM 59.0 °F 50.0 °F 72% 30.18 in 3.0 mi North - - N/A   Haze
1:55 PM 59.0 °F 50.0 °F 72% 30.18 in 5.0 mi North - - N/A   Haze
2:15 PM 59.0 °F 50.0 °F 72% 30.18 in 4.0 mi North - - N/A   Haze
2:55 PM 59.0 °F 50.0 °F 72% 30.18 in 3.0 mi North - - N/A   Haze
3:15 PM 59.0 °F 50.0 °F 72% 30.18 in 3.0 mi North - - N/A   Haze
3:35 PM 59.0 °F 48.2 °F 67% 30.18 in 3.0 mi North - - N/A   Haze
3:55 PM 59.0 °F 48.2 °F 67% 30.18 in 4.0 mi North - - N/A   Haze
4:15 PM 59.0 °F 48.2 °F 67% 30.18 in 3.0 mi North - - N/A   Haze
4:35 PM 57.2 °F 48.2 °F 72% 30.18 in 5.0 mi North - - N/A   Haze
4:55 PM 57.2 °F 50.0 °F 77% 30.19 in 5.0 mi North - - N/A   Haze
5:15 PM 57.2 °F 50.0 °F 77% 30.18 in 5.0 mi North - - N/A   Haze
5:35 PM 55.4 °F 50.0 °F 82% 30.17 in 5.0 mi North - - N/A   Haze
5:55 PM 55.4 °F 50.0 °F 82% 30.18 in 5.0 mi North - - N/A   Overcast
6:15 PM 55.4 °F 50.0 °F 82% 30.18 in 5.0 mi North - - N/A   Haze
6:35 PM 55.4 °F 50.0 °F 82% 30.18 in 5.0 mi North - - N/A   Haze
6:55 PM 55.4 °F 50.0 °F 82% 30.19 in 5.0 mi North - - N/A   Overcast
7:15 PM 55.4 °F 50.0 °F 82% 30.18 in 5.0 mi North - - N/A   Haze
7:35 PM 55.4 °F 50.0 °F 82% 30.18 in 5.0 mi North - - N/A   Haze
7:55 PM 55.4 °F 50.0 °F 82% 30.18 in 5.0 mi North - - N/A   Haze
8:15 PM 55.4 °F 50.0 °F 82% 30.17 in 5.0 mi North - - N/A   Haze
8:55 PM 53.6 °F 50.0 °F 88% 30.16 in 4.0 mi North - - N/A   Overcast
9:15 PM 53.6 °F 50.0 °F 88% 30.16 in 5.0 mi North - - N/A   Overcast
9:35 PM 53.6 °F 50.0 °F 88% 30.15 in 4.0 mi North - - N/A   Overcast
9:55 PM 51.8 °F 50.0 °F 94% 30.15 in 4.0 mi North - - N/A   Overcast
10:15 PM 51.8 °F 48.2 °F 88% 30.15 in 4.0 mi North - - N/A   Overcast
10:35 PM 51.8 °F 48.2 °F 88% 30.14 in 5.0 mi North - - N/A   Overcast
10:55 PM 51.8 °F 48.2 °F 88% 30.14 in 5.0 mi North - - N/A   Overcast
11:15 PM 51.8 °F 48.2 °F 88% 30.14 in 4.0 mi North - - N/A   Overcast
11:35 PM 51.8 °F 46.4 °F 82% 30.13 in 4.0 mi North - - N/A   Haze
11:55 PM 51.8 °F 48.2 °F 88% 30.13 in 3.0 mi North - - N/A   Overcast